Tallahassee, FL

11:39 AM EST on February 24, 2018 (GMT -0500)
Tallahassee Regional

Weather History for KTLH - September, 2012

Change the Weather History Date:

Monday, September 10, 2012

  Actual Average Record
Temperature  
Mean Temperature 75 °F 80 °F  
Max Temperature 87 °F 90 °F 98 °F (1954)
Min Temperature 62 °F 70 °F 54 °F (1969)
Degree Days  
Heating Degree Days 0    
Month to date heating degree days 0  
Since 1 July heating degree days 0  
Cooling Degree Days 10    
Month to date cooling degree days 155  
Year to date cooling degree days 2464  
Growing Degree Days 24 (Base 50)    
Moisture  
Dew Point 59 °F    
Average Humidity 60    
Maximum Humidity 90    
Minimum Humidity 30    
Precipitation  
Precipitation 0.00 in 0.16 in 2.74 in (1964)
Month to date precipitation 1.64 1.75  
Year to date precipitation 48.82 45.66  
Sea Level Pressure  
Sea Level Pressure 30.03 in    
Wind  
Wind Speed 4 mph (NE)    
Max Wind Speed 12 mph    
Max Gust Speed 18 mph    
Visibility 10 miles    
Events      
T = Trace of Precipitation, MM = Missing Value Source: NWS Daily Summary

Daily Weather History Graph

Daily Weather History Graph

Search for Another Location

Airport or City:

Trip Planner

Search our weather history database for the weather conditions in past years. The results will help you decide how hot, cold, wet, or windy it might be!

Date:

Astronomy

Sep. 10, 2012 Rise Set
Actual Time 7:19 AM EDT 7:48 PM EDT
Civil Twilight 6:55 AM EDT 8:12 PM EDT
Nautical Twilight 6:26 AM EDT 8:40 PM EDT
Astronomical Twilight 5:58 AM EDT 9:09 PM EDT
Moon 1:57 AM EDT (9/10) 4:01 PM EDT (9/10)
Length of Visible Light 13h 17m
Length of Day
12h 29m
Waning Crescent, 30% of the Moon is Illuminated
Sep 10
Waning Crescent
Sep 15
New
Sep 22
First Quarter
Sep 29
Full
Oct 8
Last Quarter

Hourly Weather History & Observations

Time (EDT) Temp. Heat Index Dew Point Humidity Pressure Visibility Wind Dir Wind Speed Gust Speed Precip Events Conditions
12:53 AM 64.9 °F - 61.0 °F 87% 29.98 in 10.0 mi West 3.5 mph - N/A   Clear
1:53 AM 66.0 °F - 61.0 °F 84% 29.98 in 10.0 mi Calm Calm - N/A   Clear
2:53 AM 64.0 °F - 60.1 °F 87% 29.98 in 10.0 mi Calm Calm - N/A   Clear
3:53 AM 64.9 °F - 60.1 °F 84% 29.98 in 10.0 mi Calm Calm - N/A   Clear
4:53 AM 63.0 °F - 59.0 °F 87% 29.98 in 10.0 mi Calm Calm - N/A   Clear
5:53 AM 64.0 °F - 60.1 °F 87% 29.99 in 10.0 mi Calm Calm - N/A   Clear
6:53 AM 63.0 °F - 59.0 °F 87% 30.00 in 10.0 mi Calm Calm - N/A   Clear
7:53 AM 64.9 °F - 61.0 °F 87% 30.03 in 10.0 mi NNW 3.5 mph - N/A   Clear
8:53 AM 70.0 °F - 63.0 °F 78% 30.04 in 10.0 mi Calm Calm - N/A   Clear
9:53 AM 77.0 °F - 64.9 °F 66% 30.05 in 10.0 mi NE 4.6 mph - N/A   Clear
10:53 AM 80.1 °F 81.7 °F 64.0 °F 58% 30.06 in 10.0 mi ENE 9.2 mph - N/A   Partly Cloudy
11:53 AM 82.9 °F 83.7 °F 62.1 °F 49% 30.06 in 10.0 mi East 10.4 mph - N/A   Scattered Clouds
12:53 PM 84.0 °F 83.8 °F 59.0 °F 43% 30.05 in 10.0 mi NE 6.9 mph - N/A   Scattered Clouds
1:53 PM 84.9 °F 84.2 °F 57.9 °F 40% 30.05 in 10.0 mi East 6.9 mph - N/A   Partly Cloudy
2:53 PM 86.0 °F 84.9 °F 57.0 °F 37% 30.04 in 10.0 mi NE 3.5 mph - N/A   Scattered Clouds
3:53 PM 84.9 °F 83.9 °F 57.0 °F 38% 30.02 in 10.0 mi NNE 5.8 mph - N/A   Scattered Clouds
4:53 PM 87.1 °F 85.7 °F 55.9 °F 35% 30.02 in 10.0 mi Variable 4.6 mph - N/A   Partly Cloudy
5:53 PM 86.0 °F - 52.0 °F 31% 30.03 in 10.0 mi NE 6.9 mph - N/A   Partly Cloudy
6:53 PM 84.0 °F 82.5 °F 53.1 °F 34% 30.04 in 10.0 mi ENE 5.8 mph - N/A   Partly Cloudy
7:53 PM 80.1 °F 80.4 °F 57.0 °F 45% 30.05 in 10.0 mi NE 3.5 mph - N/A   Clear
8:53 PM 73.0 °F - 61.0 °F 66% 30.05 in 10.0 mi Calm Calm - N/A   Clear
9:53 PM 73.0 °F - 59.0 °F 61% 30.07 in 10.0 mi Calm Calm - N/A   Clear
10:53 PM 72.0 °F - 59.0 °F 64% 30.08 in 10.0 mi NNE 3.5 mph - N/A   Clear
11:53 PM 75.0 °F - 57.0 °F 53% 30.08 in 10.0 mi ENE 6.9 mph - N/A   Scattered Clouds